This is the latest recevied weather packets stored in our database for station/object EA1JAV-11. If no packets are shown the sender has not sent any weather packets the latest 10 day(s).
| Time | Temp. | Humidity | Pressure | Rain* | Wind** | Luminosity | Snow |
|---|---|---|---|---|---|---|---|
| 1778186313 | 18.89° C | 47% | 985.5 hPa | - | - | - | - |
| 1778184513 | 19.44° C | 46% | 985.2 hPa | - | - | - | - |
| 1778182713 | 19.44° C | 45% | 985.1 hPa | - | - | - | - |
| 1778180913 | 20° C | 44% | 984.7 hPa | - | - | - | - |
| 1778179113 | 20.56° C | 43% | 984.5 hPa | - | - | - | - |
| 1778177313 | 21.67° C | 42% | 984.4 hPa | - | - | - | - |
| 1778175513 | 22.22° C | 42% | 984.6 hPa | - | - | - | - |
| 1778173713 | 21.67° C | 42% | 984.5 hPa | - | - | - | - |
| 1778171913 | 20.56° C | 44% | 984.3 hPa | - | - | - | - |
| 1778170113 | 21.11° C | 42% | 984.2 hPa | - | - | - | - |
| 1778168313 | 22.22° C | 41% | 984.3 hPa | - | - | - | - |
| 1778166513 | 22.22° C | 42% | 984.6 hPa | - | - | - | - |
| 1778164713 | 21.11° C | 42% | 984.7 hPa | - | - | - | - |
| 1778162913 | 22.78° C | 40% | 984.8 hPa | - | - | - | - |
| 1778161112 | 21.67° C | 41% | 984.8 hPa | - | - | - | - |
| 1778159312 | 22.22° C | 40% | 984.8 hPa | - | - | - | - |
| 1778157512 | 21.67° C | 40% | 985.1 hPa | - | - | - | - |
| 1778155712 | 21.67° C | 42% | 985.3 hPa | - | - | - | - |
| 1778153912 | 21.11° C | 43% | 985.7 hPa | - | - | - | - |
| 1778152112 | 20° C | 44% | 985.7 hPa | - | - | - | - |
| 1778150312 | 20° C | 45% | 985.7 hPa | - | - | - | - |
| 1778148512 | 18.89° C | 46% | 985.9 hPa | - | - | - | - |
| 1778146712 | 17.78° C | 47% | 985.9 hPa | - | - | - | - |
| 1778144912 | 16.11° C | 49% | 986 hPa | - | - | - | - |
| 1778143112 | 15° C | 50% | 986.3 hPa | - | - | - | - |
* Rain since midnight (hover to see other rain measurements)
** Current wind speed in m/s (hover to see current wind gust speed)